Home   Weather   Pueblo   Past weeks

Flag for USA Past Weather in Pueblo, Colorado, USA — Yesterday and Last 2 Weeks

Now
43 °F

Sunny.


Feels Like: 38 °F
Forecast: 22 / 47 °F
Wind: 8 mph from East

Location: Pueblo Memorial Airport

Current Time: Jan 18, 2017 at 11:33:04 am

Latest Report: Jan 18, 2017 at 10:53 am


Visibility: 10 mi

Pressure: 29.93 "Hg (25.12 "Hg at 1430m altitude)

Humidity: 65%

Dew Point: 32 °F

Location of PuebloLocation

Past Weather in Pueblo — Graph

°F

Pueblo Temperature Yesterday

Maximum temperature yesterday: 40 °F (at 1:53 pm)
Minimum temperature yesterday: 26 °F (at 7:01 am)
Average temperature yesterday: 31 °F

High & Low Weather Summary for the Past Weeks

 TemperatureHumidityPressure
High63 °F (Jan 9, 12:53 pm)96% (Jan 15, 9:01 pm)30.71 "Hg (Jan 15, 9:01 pm)
Low-14 °F (Jan 7, 12:53 am)20% (Jan 11, 11:53 am)29.38 "Hg (Jan 9, 11:53 pm)
Average27 °F72%30.08 "Hg
* Reported Jan 3 9:53 am — Jan 18 9:53 am, Pueblo, Weather by CustomWeather, © 2017

Note: Actual official high and low records may vary slightly from our data, if they occured in-between our weather recording intervals... More about our weather records

Advertising

Pueblo Weather History for the Previous 24 Hours

Scroll right to see more
 ConditionsComfort  
Time TempWeatherWind HumidityBarometerVisibility
9:53 am
Wed, Jan 18
33 °FSunny.5 mph88%29.97 "Hg10 mi
8:53 am29 °FSunny.6 mph85%30.00 "Hg10 mi
7:53 am26 °FSunny.6 mph84%30.02 "Hg8 mi
7:03 am25 °FPassing clouds.7 mph85%29.95 "Hg10 mi
6:55 am25 °FIce fog.8 mph85%29.95 "Hg4 mi
6:10 am24 °FIce fog.5 mph88%29.96 "Hg1 mi
6:00 am25 °FIce fog.No wind88%29.96 "Hg0 mi
5:53 am25 °FIce fog.No wind88%30.04 "Hg0 mi
4:53 am27 °FIce fog.No wind89%30.03 "Hg0 mi
3:53 am28 °FIce fog.No wind93%30.01 "Hg0 mi
3:32 am27 °FIce fog.5 mph92%29.98 "Hg1 mi
3:16 am27 °FIce fog.No wind92%29.98 "Hg0 mi
2:53 am29 °FIce fog.8 mph89%30.01 "Hg0 mi
2:08 am29 °FIce fog.3 mph89%30.01 "Hg0 mi
1:58 am29 °FIce fog.3 mph89%30.01 "Hg0 mi
1:34 am27 °FIce fog.5 mph92%30.01 "Hg3 mi
12:53 am26 °FClear.No wind88%30.06 "Hg10 mi
12:35 am26 °FPassing clouds.3 mph88%30.02 "Hg10 mi
12:07 am26 °FIce fog.No wind88%30.04 "Hg1 mi
11:53 pm
Tue, Jan 17
26 °FIce fog.No wind92%30.10 "Hg0 mi
10:53 pm27 °FIce fog.3 mph96%30.13 "Hg0 mi
10:34 pm27 °FIce fog.3 mph96%30.07 "Hg0 mi
10:08 pm27 °FIce fog.3 mph92%30.07 "Hg1 mi
9:53 pm27 °FIce fog.5 mph92%30.13 "Hg2 mi
9:25 pm27 °FIce fog.5 mph92%30.07 "Hg1 mi
9:16 pm27 °FIce fog.3 mph92%30.07 "Hg0 mi
8:53 pm27 °FIce fog.5 mph96%30.13 "Hg0 mi
7:58 pm28 °FIce fog.3 mph89%30.05 "Hg0 mi
7:31 pm29 °FIce fog.No wind93%30.04 "Hg0 mi
6:53 pm30 °FIce fog.6 mph92%30.11 "Hg0 mi
6:33 pm30 °FIce fog.5 mph96%30.03 "Hg0 mi
6:04 pm31 °FIce fog.No wind96%30.02 "Hg1 mi
5:53 pm31 °FIce fog.5 mph96%30.08 "Hg0 mi
4:53 pm33 °FFog.5 mph92%30.06 "Hg3 mi
3:53 pm37 °FSunny.7 mph89%30.05 "Hg7 mi
2:53 pm38 °FSunny.8 mph83%30.04 "Hg7 mi
1:53 pm40 °FPassing clouds.5 mph83%30.03 "Hg10 mi
1:10 pm38 °FScattered clouds.3 mph86%30.03 "Hg10 mi
12:53 pm38 °FPartly sunny.No wind83%30.06 "Hg10 mi
12:41 pm36 °FLow clouds.3 mph85%30.05 "Hg10 mi
11:53 am35 °FLow clouds.No wind88%30.11 "Hg9 mi
Weather by CustomWeather, © 2017

See weather overviewHow to use our weather pages